User: anonymous   Login
Location: Unspecified
(0.0000°N, 0.0000°E)
Time: 21:50:31
(UTC+00:00)
Language:

STARLINK-34804 - Orbit

View from above orbital plane
View from above orbital plane
View from above satellite
View from above satellite

Ground track
Ground track

The orbit is defined by the following mean orbital elements,

1 65026U          26145.13862396 +.00000000 +00000-0 +63339-3 0 00005
2 65026  53.1597 299.1647 0001686  85.3283 274.7910 15.30211393    07
Epoch (UTC): 25 May 2026 03:19:37
Eccentricity: 0.0001686
inclination: 53.1597°
perigee height: 474 km
apogee height: 476 km
right ascension of ascending node: 299.1647°
argument of perigee: 85.3283°
revolutions per day: 15.30211393
mean anomaly at epoch: 274.7910°

The dashed part of the orbit path shows where the satellite is in the earth's shadow,  

DLR